WB4ROX-10 Weather Reports


time (UTC)temp
F
wind
direction
speed
knots
gust
knots
rain 1hr
in
rain 24hr
in
rain mn
in
humidity
%
barometer
mb
20260906072540 65 74 0.0 0.9 0.00 0.00 0.00 88 1011.2
20260906072040 65 296 1.7 2.6 0.00 0.00 0.00 88 1011.2
20260906071040 65 42 0.9 0.9 0.00 0.00 0.00 88 1011.2
20260906070040 65 75 0.0 0.9 0.00 0.00 0.00 88 1011.2
20260906065041 65 70 0.0 0.0 0.00 0.00 0.00 88 1011.2
20260906064541 65 65 0.0 0.0 0.00 0.00 0.00 88 1011.5
20260906062040 64 62 0.9 0.9 0.00 0.00 0.00 89 1011.6
20260906061541 64 82 0.0 0.0 0.00 0.00 0.00 89 1011.9
20260906061041 64 104 0.0 0.0 0.00 0.00 0.00 88 1011.8
20260906060040 64 70 0.0 0.0 0.00 0.00 0.00 87 1011.9
20260906055040 64 70 0.0 0.0 0.00 0.00 0.00 88 1011.9
20260906054041 64 72 0.0 0.9 0.00 0.00 0.00 88 1012.1
20260906053541 64 70 0.0 0.0 0.00 0.00 0.00 88 1012.1
20260906053040 64 68 0.9 0.9 0.00 0.00 0.00 88 1012.3
20260906052540 64 72 0.0 0.0 0.00 0.00 0.00 89 1012.0
20260906052041 64 56 0.0 0.0 0.00 0.00 0.00 90 1012.3
20260906051541 64 70 0.0 0.0 0.00 0.00 0.00 90 1012.2
20260906050541 64 75 0.0 0.0 0.00 0.00 0.00 89 1012.3
20260906045541 64 70 0.0 0.0 0.00 0.00 0.00 89 1012.3
20260906045042 64 65 0.9 0.9 0.00 0.00 0.00 90 1012.4
20260906044041 64 63 0.0 0.0 0.00 0.00 0.00 90 1012.3
20260906043540 64 64 0.0 0.0 0.00 0.00 0.00 89 1012.2
20260906043041 64 64 0.0 0.0 0.00 0.00 0.00 89 1011.9
20260906042540 64 65 0.0 0.0 0.00 0.00 0.00 89 1012.3
20260906042040 64 65 0.0 0.0 0.00 0.00 0.00 89 1012.2
20260906041540 64 64 0.9 0.9 0.00 0.00 0.00 90 1012.3
20260906041041 64 73 0.0 0.0 0.00 0.00 0.00 90 1012.1
20260906040541 64 64 0.0 0.0 0.00 0.00 0.00 91 1012.3
20260906040041 64 62 0.0 0.0 0.00 0.00 0.00 91 1012.4
20260906035541 64 62 0.0 0.0 0.00 0.00 0.00 92 1012.4
20260906035040 64 64 0.0 0.0 0.00 0.00 0.00 92 1012.5
20260906034540 64 69 0.0 0.0 0.00 0.00 0.00 92 1012.5
20260906034040 64 70 0.0 0.0 0.00 0.00 0.00 92 1012.7
20260906033540 64 124 0.9 0.9 0.00 0.00 0.00 92 1012.5
20260906033040 64 76 0.0 0.0 0.00 0.00 0.00 92 1012.7
20260906032540 64 343 0.0 0.0 0.00 0.00 0.00 92 1012.7
20260906032041 64 64 0.0 0.0 0.00 0.00 0.00 92 1012.6
20260906031540 64 64 0.0 0.0 0.00 0.00 0.00 92 1012.4
20260906031040 65 72 0.0 0.0 0.00 0.00 0.00 91 1012.8
20260906030540 65 91 0.0 0.0 0.00 0.00 0.00 91 1012.6
20260906030041 65 71 0.9 0.9 0.00 0.00 0.00 91 1012.6
20260906025540 65 35 1.7 1.7 0.00 0.00 0.00 91 1012.4
20260906025041 65 84 0.0 0.0 0.00 0.00 0.00 90 1012.6
20260906024540 65 86 0.0 0.0 0.00 0.00 0.00 90 1012.4
20260906023540 65 47 0.0 0.0 0.00 0.00 0.00 88 1012.5
20260906023040 65 82 0.9 0.9 0.00 0.00 0.00 87 1012.5
20260906021541 65 76 0.0 0.0 0.00 0.00 0.00 87 1012.5
20260906021041 65 50 1.7 1.7 0.00 0.00 0.00 87 1012.4
20260906020541 65 58 1.7 1.7 0.00 0.00 0.00 87 1012.4
20260906020040 65 66 0.0 0.0 0.00 0.00 0.00 88 1012.6
20260906014541 65 93 0.0 0.0 0.00 0.00 0.00 88 1012.6
20260906014040 65 59 0.9 0.9 0.00 0.00 0.00 88 1012.2
20260906013540 65 33 1.7 1.7 0.00 0.00 0.00 88 1012.2
20260906013040 65 15 2.6 2.6 0.00 0.00 0.00 88 1012.3
20260906012040 65 72 0.0 0.0 0.00 0.00 0.00 88 1012.2
20260906011040 65 78 0.0 0.0 0.00 0.00 0.00 87 1012.0
20260906010040 65 60 1.7 1.7 0.00 0.00 0.00 87 1012.0
20260906005540 65 71 0.9 0.9 0.00 0.00 0.00 87 1011.9
20260906005040 65 53 0.0 0.0 0.00 0.00 0.00 86 1011.8
20260906004541 65 47 1.7 2.6 0.00 0.00 0.00 85 1011.8
20260906004040 65 51 0.9 0.9 0.00 0.00 0.00 85 1011.9
20260906002540 65 75 0.0 0.0 0.00 0.00 0.00 83 1011.6
20260906001540 65 30 1.7 1.7 0.00 0.00 0.00 83 1011.6
20260906001040 65 5 2.6 2.6 0.00 0.00 0.00 83 1011.5
20260906000540 65 82 0.0 0.0 0.00 0.00 0.00 82 1011.5
20260906000042 65 87 0.0 0.0 0.00 0.00 0.00 82 1011.4
20260905212040 71 77 1.7 1.7 0.00 0.00 0.00 76 1011.8
20260905200040 71 290 5.2 7.8 0.00 0.00 0.00 70 1011.7
20260905195541 72 287 7.0 7.8 0.00 0.00 0.00 67 1011.9
20260905194540 71 63 2.6 2.6 0.00 0.00 0.00 71 1011.8
20260905194041 71 30 2.6 2.6 0.00 0.00 0.00 70 1012.0
20260905192040 66 58 0.9 0.9 0.00 0.00 0.00 82 1012.0
20260905190041 64 19 1.7 1.7 0.00 0.00 0.00 86 1012.0
20260905185541 64 60 1.7 1.7 0.00 0.00 0.00 86 1011.9
20260905182540 62 80 0.9 0.9 0.00 0.00 0.00 88 1012.6
20260905180041 62 89 0.0 0.0 0.00 0.00 0.00 92 1013.2
20260905113039 67 285 1.7 2.6 0.00 0.00 0.00 88 1013.8
20260905110040 67 51 1.7 1.7 0.00 0.00 0.00 87 1013.5
20260905105540 67 263 1.7 1.7 0.00 0.00 0.00 88 1013.7
20260905105040 67 55 0.0 0.0 0.00 0.00 0.00 87 1013.5
20260905104539 68 276 1.7 1.7 0.00 0.00 0.00 87 1013.6
20260905104040 68 63 0.9 0.9 0.00 0.00 0.00 87 1013.5
20260905103540 68 62 0.9 0.9 0.00 0.00 0.00 87 1013.4
20260905103039 68 63 0.0 0.9 0.00 0.00 0.00 87 1013.4
20260905102041 68 65 0.9 0.9 0.00 0.00 0.00 87 1013.4
20260905101041 68 58 0.9 0.9 0.00 0.00 0.00 87 1013.5
20260905100540 68 70 0.0 0.0 0.00 0.00 0.00 86 1013.3
20260905100041 68 344 0.9 1.7 0.00 0.00 0.00 86 1013.5
20260905095540 68 74 0.0 0.0 0.00 0.00 0.00 86 1013.4
20260905095041 68 29 1.7 2.6 0.00 0.00 0.00 86 1013.3
20260905094540 68 70 0.9 1.7 0.00 0.00 0.00 86 1013.2
20260905094040 68 70 0.0 0.0 0.00 0.00 0.00 86 1013.2
20260905093540 68 77 2.6 3.5 0.00 0.00 0.00 86 1013.3
20260905093042 68 76 0.0 0.0 0.00 0.00 0.00 86 1013.3
20260905092542 68 65 0.0 0.0 0.00 0.00 0.00 86 1013.4
20260905092040 68 61 0.9 0.9 0.00 0.00 0.00 86 1013.5
20260905091540 68 61 0.9 0.9 0.00 0.00 0.00 86 1013.3
20260905091041 68 53 0.0 0.0 0.00 0.00 0.00 85 1013.4
20260905090541 68 55 1.7 1.7 0.00 0.00 0.00 85 1013.3
20260905090041 68 76 0.0 0.9 0.00 0.00 0.00 85 1013.6
20260905085541 68 68 0.9 0.9 0.00 0.00 0.00 85 1013.4
20260905085040 68 71 0.0 0.0 0.00 0.00 0.00 84 1013.5
20260905084541 68 12 1.7 1.7 0.00 0.00 0.00 84 1013.5
20260905084040 68 66 1.7 1.7 0.00 0.00 0.00 85 1013.6
20260905083540 68 61 0.0 0.0 0.00 0.00 0.00 85 1013.4
20260905083040 68 55 0.0 0.0 0.00 0.00 0.00 84 1013.7
20260905082041 68 66 0.0 0.0 0.00 0.00 0.00 83 1013.8
20260905081540 68 70 0.0 0.0 0.00 0.00 0.00 83 1013.9
20260905081040 68 63 0.9 0.9 0.00 0.00 0.00 84 1013.7
20260905080540 68 60 0.0 0.0 0.00 0.00 0.00 85 1013.8
20260905080041 68 61 0.0 0.0 0.00 0.00 0.00 85 1014.0
20260905075540 68 61 0.0 0.0 0.00 0.00 0.00 85 1013.8
20260905075040 68 61 0.0 0.0 0.00 0.00 0.00 85 1014.0
20260905074540 68 61 0.0 0.0 0.00 0.00 0.00 85 1013.8
20260905074040 68 56 0.0 0.0 0.00 0.00 0.00 85 1014.0
20260905073541 68 57 0.9 0.9 0.00 0.00 0.00 86 1014.0
20260905073040 68 63 0.0 0.0 0.00 0.00 0.00 85 1014.0